[[{"header":{"parameterUnit":"m.s-1","parameterCategory":1,"la1":30.2991,"la2":30.254,"lo1":-89.0895,"lo2":-89.0444,"dy":0.0017,"dx":0.0017,"nx":28,"ny":28,"refTime":"2024-02-06T03:00:00:Z","depth":0,"parameterNumber":2,"parameterNumberName":"U-component_of_WINDS"},"data":[0,0,0,0,0,0,0,0,0,0,0,0,0,0,0,0,0,0,0,0,0,0,0,0,0,0,0,0,0,0,0,0,0,0,0,0,0,0,0,0,0,0,0,0,0,0,0,0,0,0,0,0,0,0,0,0,0,0,-2.8663,-2.8664,0,-2.869,-2.8691,-2.8691,-2.8599,-2.8596,-2.8593,-2.859,-2.862,-2.8623,-2.8626,0,0,0,0,0,0,0,0,0,0,0,0,0,-2.8533,-2.8536,-2.8663,-2.8664,-2.8664,-2.869,-2.8691,-2.8691,-2.8599,-2.8596,-2.8592,-2.8589,-2.8618,-2.8622,-2.8626,0,0,0,0,0,0,0,0,0,0,0,0,0,-2.8578,-2.8537,-2.8663,-2.8621,-2.8618,-2.869,-2.8691,-2.8691,-2.86,-2.8596,-2.8591,-2.8588,-2.8617,-2.8622,-2.8627,-2.8742,0,0,-2.8642,-2.8645,0,0,0,0,0,0,0,0,-2.8575,-2.8583,-2.8627,-2.8624,-2.862,-2.8637,-2.8655,-2.8708,-2.8601,-2.8607,-2.859,-2.8585,-2.8629,-2.8633,-2.8647,-2.8743,-2.8744,-2.8643,-2.8646,-2.8648,-2.865,0,0,0,0,0,0,0,-2.8572,-2.8581,-2.8674,-2.8628,-2.8624,-2.8601,-2.8603,-2.8665,-2.8641,-2.8606,-2.8599,-2.8604,-2.8626,-2.8642,-2.8647,-2.8745,-2.8643,-2.8647,-2.865,-2.8652,-2.8937,-2.8941,0,0,0,0,0,0,-2.8575,-2.8579,-2.8673,-2.8675,-2.8587,-2.8607,-2.8609,-2.8636,-2.864,-2.8636,-2.8607,-2.8599,-2.8636,-2.8641,-2.8648,-2.8783,-2.8648,-2.8653,-2.8656,-2.8932,-2.8938,-2.8943,0,0,0,0,0,0,-2.8572,-2.8584,-2.8672,-2.8625,-2.8635,-2.8614,-2.8645,-2.8639,-2.8654,-2.8641,-2.8636,-2.8628,-2.8633,-2.864,-2.8719,-2.8782,-2.8655,-2.866,-2.8927,-2.8934,-2.894,-2.9054,0,0,0,0,0,0,-2.8569,-2.8584,-2.8627,-2.8627,-2.8638,-2.8743,-2.8648,-2.8642,-2.8663,-2.8653,-2.8659,-2.8656,-2.863,-2.8712,-2.8724,-2.8787,-2.8664,-2.8921,-2.893,-2.8938,-2.9044,-2.9063,-2.908,0,0,0,0,0,-2.8565,-2.8658,-2.863,-2.8641,-2.8691,-2.8747,-2.8753,-2.8721,-2.8669,-2.8712,-2.8703,-2.8656,-2.8773,-2.8721,-2.8734,-2.8799,-2.8917,-2.8928,-2.8938,-2.9036,-2.906,-2.9079,0,0,0,0,0,0,-2.8666,-2.8657,-2.8626,-2.8722,-2.8736,-2.8731,-2.8785,-2.8747,-2.8776,-2.8765,-2.8724,-2.8726,-2.8813,-2.8813,-2.8755,-2.891,-2.8836,-2.885,-2.8907,-2.8929,-2.8947,-2.8945,-2.8668,0,0,0,0,0,-2.87,-2.8746,-2.8735,-2.8821,-2.883,-2.8807,-2.883,-2.8803,-2.8816,-2.8822,-2.8819,-2.8834,-2.8874,-2.8901,-2.8937,-2.9043,-2.9044,-2.9095,-2.9113,-2.9127,-2.914,-2.9196,-2.9219,-2.8976,-2.8976,-2.8976,0,0,-2.877,-2.8771,-2.8802,-2.8842,-2.8849,-2.8898,-2.8812,-2.8867,-2.8903,-2.8831,-2.8905,-2.8903,-2.8917,-2.901,-2.9051,-2.9013,-2.9206,-2.914,-2.9152,-2.9156,-2.9209,-2.9232,-2.9252,-2.8983,-2.8982,-2.8981,0,0,-2.8923,-2.8928,-2.9,-2.9009,-2.9022,-2.9006,-2.9023,-2.9025,-2.9021,-2.9094,-2.9041,-2.9083,-2.9153,-2.9165,-2.918,-2.9338,-2.9295,-2.935,-2.9444,-2.95,-2.9519,-2.9536,-2.9592,-2.9613,-2.9362,-2.9363,-2.9363,0,-2.9008,-2.9079,-2.9042,-2.9101,-2.912,-2.9056,-2.9129,-2.914,-2.9164,-2.9179,-2.9137,-2.9223,-2.9228,-2.9323,-2.9361,-2.9376,-2.9395,-2.935,-2.9519,-2.9535,-2.9551,-2.9604,-2.9626,-2.9369,-2.9369,-2.9368,-2.9367,0,-2.9184,-2.9234,-2.9291,-2.9316,-2.9341,-2.9407,-2.938,-2.941,-2.9382,-2.937,-2.9446,-2.9449,-2.9485,-2.9505,-2.9478,-2.9597,-2.9573,-2.9526,-2.9451,-2.9581,-2.9631,-2.9651,-2.9379,-2.9377,-2.9375,-2.9373,0,0,-2.9402,-2.9405,-2.9427,-2.9437,-2.9447,-2.9485,-2.9548,-2.9582,-2.9609,-2.9628,-2.968,-2.9741,-2.9697,-2.9714,-2.9688,-2.9736,-2.9861,-2.9683,-2.9682,-2.9716,-2.9993,-3.0029,-3.0054,-2.9833,-2.9837,-2.984,-2.9992,0,-2.9553,-2.966,-2.9628,-2.9737,-2.9783,-2.9722,-2.9777,-2.9789,-2.978,-2.9818,-2.9807,-2.9851,-2.979,-2.98,-2.9845,-2.9837,-2.9917,-2.9825,-2.9882,-2.9884,-2.9881,-3.008,-3.0118,-3.0262,-3.0011,-3.0014,-3.0017,0,-2.9743,-2.9769,-2.9882,-2.9884,-2.9902,-2.9952,-2.9981,-3.0018,-3.003,-3.002,-3.004,-3.0003,-3.0065,-2.9989,-3.0075,-3.0013,-3.0034,-3.0034,-3.0038,-3.0043,-2.9959,-3.009,-3.0307,-3.0329,-3.0047,-3.0044,-3.0042,0,-2.9892,-2.9955,-3.0031,-3.0041,-3.0045,-3.0082,-3.0085,-3.0093,-3.0116,-3.0141,-3.0156,-3.0189,-3.0207,-3.0233,-3.0207,-3.0154,-3.0296,-3.0218,-3.029,-3.0291,-3.0324,-3.0322,-3.0548,-3.0337,-3.0336,-3.0336,-3.0335,0,-3.0064,-3.0135,-3.0098,-3.0144,-3.0223,-3.0185,-3.0264,-3.0261,-3.0268,-3.0314,-3.0263,-3.0307,-3.0268,-3.0309,-3.0288,-3.0362,-3.0371,-3.0365,-3.0359,-3.037,-3.0371,-3.0384,-3.0373,-3.0341,-3.034,-3.0339,-3.0338,0,-3.0244,-3.0221,-3.03,-3.0296,-3.0297,-3.0356,-3.0353,-3.0396,-3.0383,-3.0441,-3.0452,-3.0432,-3.0477,-3.0453,-3.0499,-3.0485,-3.0582,-3.0561,-3.0578,-3.0573,-3.0646,-3.064,-3.0888,-3.0919,-3.0688,-3.069,-3.0692,0,-3.0355,-3.0409,-3.0411,-3.0438,-3.0444,-3.0488,-3.0511,-3.0476,-3.0502,-3.052,-3.0561,-3.0601,-3.0632,-3.0706,-3.0696,-3.0731,-3.0712,-3.0797,-3.0717,-3.0727,-3.0714,-3.0712,-3.0717,-3.0813,-3.0816,-3.0818,-3.082,0,-3.0556,-3.0542,-3.0577,-3.0608,-3.0637,-3.066,-3.0679,-3.0704,-3.0669,-3.0701,-3.0746,-3.077,-3.0816,-3.0857,-3.0887,-3.0891,-3.0851,-3.0845,-3.0863,-3.0876,-3.0883,-3.0881,-3.0622,-3.0839,-3.0837,-3.0836,-3.0835,-3.0834,-3.0705,-3.075,-3.0759,-3.08,-3.081,-3.0829,-3.0869,-3.0861,-3.0898,-3.0933,-3.091,-3.0964,-3.0974,-3.1011,-3.1019,-3.1061,-3.1027,-3.1054,-3.1061,-3.1068,-3.1078,-3.0876,-3.1066,-3.1065,-3.1065,-3.1064,-3.1064,0,-3.0904,-3.0906,-3.0944,-3.0972,-3.1004,-3.0962,-3.098,-3.101,-3.1058,-3.1071,-3.1102,-3.1154,-3.1193,-3.1186,-3.1222,-3.1256,-3.1238,-3.1267,-3.1264,-3.1266,-3.1106,-3.1087,-3.1281,-3.1281,-3.128,-3.128,-3.128,-3.128,-3.1011,-3.1085,-3.1072,-3.1151,-3.1152,-3.1204,-3.1218,-3.1236,-3.1246,-3.1306,-3.1338,-3.1333,-3.1338,-3.1374,-3.1408,-3.1405,-3.1421,-3.1457,-3.1447,-3.1298,-3.1277,-3.1257,-3.1238,-3.146,-3.146,-3.1603,-3.1604,-3.1605]},{"header":{"parameterUnit":"m.s-1","parameterCategory":1,"la1":30.2991,"la2":30.254,"lo1":-89.0895,"lo2":-89.0444,"dy":0.0017,"dx":0.0017,"nx":28,"ny":28,"refTime":"2024-02-06T03:00:00:Z","depth":0,"parameterNumber":3,"parameterNumberName":"V-component_of_WINDS"},"data":[0,0,0,0,0,0,0,0,0,0,0,0,0,0,0,0,0,0,0,0,0,0,0,0,0,0,0,0,0,0,0,0,0,0,0,0,0,0,0,0,0,0,0,0,0,0,0,0,0,0,0,0,0,0,0,0,0,0,-1.816,-1.8161,0,-1.8175,-1.8175,-1.8175,-1.8156,-1.8155,-1.8154,-1.8154,-1.8167,-1.8168,-1.8169,0,0,0,0,0,0,0,0,0,0,0,0,0,-1.8115,-1.8116,-1.816,-1.8161,-1.8161,-1.8175,-1.8175,-1.8175,-1.8156,-1.8155,-1.8154,-1.8153,-1.8167,-1.8168,-1.8169,0,0,0,0,0,0,0,0,0,0,0,0,0,-1.8133,-1.8116,-1.816,-1.8153,-1.8152,-1.8175,-1.8175,-1.8175,-1.8156,-1.8155,-1.8154,-1.8153,-1.8166,-1.8168,-1.8169,-1.8199,0,0,-1.8174,-1.8174,0,0,0,0,0,0,0,0,-1.8132,-1.8134,-1.8154,-1.8154,-1.8153,-1.8162,-1.8164,-1.8183,-1.8156,-1.8155,-1.8154,-1.8152,-1.8166,-1.8168,-1.8172,-1.8199,-1.82,-1.8174,-1.8175,-1.8175,-1.8176,0,0,0,0,0,0,0,-1.813,-1.8133,-1.8166,-1.8154,-1.8154,-1.8148,-1.815,-1.8167,-1.8166,-1.8155,-1.8153,-1.8155,-1.8166,-1.8171,-1.8173,-1.82,-1.8174,-1.8175,-1.8176,-1.8177,-1.8251,-1.8252,0,0,0,0,0,0,-1.813,-1.8133,-1.8166,-1.8166,-1.814,-1.815,-1.8151,-1.816,-1.8166,-1.8166,-1.8156,-1.8154,-1.8169,-1.8171,-1.8173,-1.8207,-1.8175,-1.8177,-1.8178,-1.825,-1.8251,-1.8252,0,0,0,0,0,0,-1.8129,-1.8133,-1.8165,-1.8149,-1.8153,-1.8152,-1.8162,-1.8161,-1.8167,-1.8167,-1.8166,-1.8162,-1.8168,-1.8171,-1.8192,-1.8207,-1.8177,-1.8179,-1.8248,-1.825,-1.8252,-1.8276,0,0,0,0,0,0,-1.8128,-1.8133,-1.8145,-1.815,-1.8154,-1.8185,-1.8163,-1.8162,-1.8169,-1.8167,-1.8172,-1.8172,-1.8168,-1.819,-1.8194,-1.8209,-1.818,-1.8247,-1.8249,-1.8251,-1.8274,-1.8278,-1.8282,0,0,0,0,0,-1.8127,-1.8151,-1.8146,-1.815,-1.8169,-1.8186,-1.8188,-1.8183,-1.8171,-1.8182,-1.8182,-1.8172,-1.8205,-1.8193,-1.8196,-1.8212,-1.8246,-1.8249,-1.8251,-1.8272,-1.8278,-1.8282,0,0,0,0,0,0,-1.8148,-1.8152,-1.8146,-1.8173,-1.8179,-1.8182,-1.8197,-1.8189,-1.8198,-1.8196,-1.8189,-1.819,-1.8213,-1.8215,-1.82,-1.824,-1.8223,-1.8227,-1.8238,-1.8243,-1.8248,-1.8246,-1.8181,0,0,0,0,0,-1.8156,-1.8171,-1.8173,-1.8196,-1.82,-1.8198,-1.8205,-1.8201,-1.8207,-1.8209,-1.8211,-1.8217,-1.8228,-1.8236,-1.8247,-1.8274,-1.8275,-1.8287,-1.8291,-1.8295,-1.8297,-1.8311,-1.8316,-1.826,-1.826,-1.826,0,0,-1.8173,-1.8177,-1.8186,-1.8201,-1.8205,-1.8219,-1.82,-1.8216,-1.8226,-1.8211,-1.8231,-1.8233,-1.8239,-1.8263,-1.8274,-1.8265,-1.8313,-1.8298,-1.83,-1.8301,-1.8314,-1.8319,-1.8324,-1.8262,-1.8262,-1.8261,0,0,-1.821,-1.8215,-1.8235,-1.8239,-1.8246,-1.8244,-1.8249,-1.8254,-1.8254,-1.8274,-1.8263,-1.8275,-1.8295,-1.83,-1.8305,-1.8343,-1.8333,-1.8346,-1.8368,-1.8381,-1.8385,-1.8389,-1.8402,-1.8406,-1.8349,-1.8349,-1.8349,0,-1.823,-1.8251,-1.8246,-1.8262,-1.8268,-1.8256,-1.8275,-1.828,-1.829,-1.8294,-1.8285,-1.8309,-1.8313,-1.8337,-1.8346,-1.8351,-1.8356,-1.8345,-1.8385,-1.8389,-1.8392,-1.8404,-1.8409,-1.8351,-1.8351,-1.835,-1.835,0,-1.8274,-1.8289,-1.8304,-1.8314,-1.8322,-1.834,-1.8336,-1.8345,-1.834,-1.8339,-1.8359,-1.8362,-1.8373,-1.8379,-1.8374,-1.8402,-1.8397,-1.8386,-1.8369,-1.8399,-1.841,-1.8415,-1.8353,-1.8352,-1.8352,-1.8351,0,0,-1.8326,-1.8332,-1.8337,-1.8341,-1.8347,-1.8358,-1.8375,-1.8386,-1.8393,-1.84,-1.8414,-1.8431,-1.8421,-1.8427,-1.8422,-1.8434,-1.8462,-1.8422,-1.8422,-1.8428,-1.8493,-1.85,-1.8505,-1.8456,-1.8457,-1.8458,-1.8492,0,-1.8362,-1.8392,-1.8387,-1.8415,-1.8428,-1.8416,-1.843,-1.8435,-1.8434,-1.8445,-1.8444,-1.8456,-1.8443,-1.8446,-1.8457,-1.8457,-1.8475,-1.8454,-1.8468,-1.8468,-1.8466,-1.8511,-1.8519,-1.8551,-1.8496,-1.8497,-1.8498,0,-1.8409,-1.8417,-1.8447,-1.845,-1.8455,-1.8468,-1.8477,-1.8488,-1.8493,-1.8491,-1.8497,-1.849,-1.8506,-1.8489,-1.851,-1.8496,-1.8501,-1.8502,-1.8503,-1.8503,-1.8484,-1.8512,-1.8561,-1.8566,-1.8505,-1.8504,-1.8504,0,-1.8442,-1.8461,-1.8481,-1.8484,-1.8489,-1.8498,-1.8501,-1.8505,-1.8511,-1.8519,-1.8523,-1.8532,-1.8537,-1.8544,-1.854,-1.8528,-1.8561,-1.8544,-1.856,-1.856,-1.8567,-1.8566,-1.8617,-1.8572,-1.8572,-1.8572,-1.8572,0,-1.8483,-1.8501,-1.8496,-1.8508,-1.8527,-1.8521,-1.8541,-1.8541,-1.8545,-1.8556,-1.8547,-1.8558,-1.8551,-1.8561,-1.8558,-1.8575,-1.8578,-1.8576,-1.8575,-1.8577,-1.8577,-1.858,-1.8577,-1.8573,-1.8573,-1.8572,-1.8572,0,-1.8523,-1.852,-1.8541,-1.8543,-1.8544,-1.8559,-1.856,-1.8571,-1.857,-1.8584,-1.8587,-1.8585,-1.8596,-1.8592,-1.8605,-1.8602,-1.8624,-1.862,-1.8622,-1.8621,-1.8637,-1.8635,-1.869,-1.8696,-1.8648,-1.8649,-1.8649,0,-1.8549,-1.8562,-1.8566,-1.8573,-1.8576,-1.8588,-1.8594,-1.8588,-1.8595,-1.8601,-1.8611,-1.8622,-1.863,-1.8648,-1.8647,-1.8656,-1.8652,-1.8671,-1.8654,-1.8655,-1.8651,-1.865,-1.8651,-1.8674,-1.8675,-1.8675,-1.8676,0,-1.8594,-1.8592,-1.8602,-1.8611,-1.8619,-1.8626,-1.8631,-1.8638,-1.8632,-1.864,-1.8652,-1.8658,-1.867,-1.8681,-1.8689,-1.869,-1.8682,-1.8681,-1.8685,-1.8686,-1.8687,-1.8686,-1.8631,-1.868,-1.8679,-1.8679,-1.8679,-1.8679,-1.8627,-1.8638,-1.8642,-1.8653,-1.8657,-1.8663,-1.8673,-1.8672,-1.8682,-1.8691,-1.8687,-1.87,-1.8704,-1.8714,-1.8717,-1.8726,-1.8719,-1.8725,-1.8726,-1.8728,-1.8729,-1.8686,-1.8728,-1.8728,-1.8728,-1.8728,-1.8728,0,-1.8671,-1.8673,-1.8683,-1.8692,-1.87,-1.8692,-1.8698,-1.8705,-1.8716,-1.8721,-1.8729,-1.8741,-1.8751,-1.8751,-1.876,-1.8767,-1.8764,-1.877,-1.8769,-1.8769,-1.8736,-1.8731,-1.8773,-1.8773,-1.8773,-1.8773,-1.8773,-1.8773,-1.8695,-1.8713,-1.8711,-1.8731,-1.8732,-1.8745,-1.8749,-1.8754,-1.8757,-1.8772,-1.878,-1.8779,-1.8782,-1.879,-1.8799,-1.8798,-1.8801,-1.8809,-1.8807,-1.8776,-1.8771,-1.8767,-1.8763,-1.881,-1.881,-1.8839,-1.8839,-1.884]}]]